Time,TemperatureF,DewpointF,PressureIn,WindDirection,WindDirectionDegrees,WindSpeedMPH,WindSpeedGustMPH,Humidity,HourlyPrecipIn,Conditions,Clouds,dailyrainin,SoftwareType,DateUTC
2013-09-20 00:00:00,67.4,19.6,29.61,SSE,161,3.0,7.0,16,0.00,CLR,,0.00,WeatherDisplay:10.37,2013-09-20 07:00:00,
2013-09-20 00:10:00,67.4,19.6,29.61,SSE,162,2.0,7.0,16,0.00,CLR,,0.00,WeatherDisplay:10.37,2013-09-20 07:10:00,
2013-09-20 00:20:00,67.3,19.5,29.61,SSE,163,1.0,6.0,16,0.00,CLR,,0.00,WeatherDisplay:10.37,2013-09-20 07:20:00,
2013-09-20 00:30:00,67.1,19.4,29.61,SSE,162,3.0,5.0,16,0.00,CLR,,0.00,WeatherDisplay:10.37,2013-09-20 07:30:00,
2013-09-20 00:40:00,66.4,20.2,29.61,SSE,163,2.0,5.0,17,0.00,CLR,,0.00,WeatherDisplay:10.37,2013-09-20 07:40:00,
2013-09-20 00:50:00,66.0,19.9,29.61,SSE,163,2.0,5.0,17,0.00,CLR,,0.00,WeatherDisplay:10.37,2013-09-20 07:50:00,
2013-09-20 01:00:00,66.3,18.7,29.61,SSE,163,3.0,7.0,16,0.00,CLR,,0.00,WeatherDisplay:10.37,2013-09-20 08:00:00,
2013-09-20 01:10:00,66.4,18.8,29.61,SSE,163,2.0,5.0,16,0.00,CLR,,0.00,WeatherDisplay:10.37,2013-09-20 08:10:00,
2013-09-20 01:20:00,66.3,18.7,29.61,SSE,164,2.0,5.0,16,0.00,CLR,,0.00,WeatherDisplay:10.37,2013-09-20 08:20:00,
2013-09-20 01:30:00,65.5,19.5,29.61,SSE,165,2.0,7.0,17,0.00,CLR,,0.00,WeatherDisplay:10.37,2013-09-20 08:30:00,
2013-09-20 01:40:00,65.0,19.1,29.60,SSE,165,2.0,5.0,17,0.00,CLR,,0.00,WeatherDisplay:10.37,2013-09-20 08:40:00,
2013-09-20 01:50:00,64.7,18.8,29.61,SSE,165,3.0,6.0,17,0.00,CLR,,0.00,WeatherDisplay:10.37,2013-09-20 08:50:00,
2013-09-20 02:00:00,64.7,20.2,29.60,SSE,165,2.0,5.0,18,0.00,CLR,,0.00,WeatherDisplay:10.37,2013-09-20 09:00:00,
2013-09-20 02:10:00,64.0,19.6,29.61,SSE,165,3.0,6.0,18,0.00,CLR,,0.00,WeatherDisplay:10.37,2013-09-20 09:10:00,
2013-09-20 02:15:00,63.9,19.5,29.61,SSE,165,3.0,9.0,18,0.00,CLR,,0.00,WeatherDisplay:10.37,2013-09-20 09:15:00,
2013-09-20 02:20:00,63.9,19.5,29.60,SSE,166,3.0,10.0,18,0.00,CLR,,0.00,WeatherDisplay:10.37,2013-09-20 09:20:00,
2013-09-20 02:30:00,63.9,19.5,29.60,South,170,5.0,9.0,18,0.00,CLR,,0.00,WeatherDisplay:10.37,2013-09-20 09:30:00,
2013-09-20 02:40:00,63.9,19.5,29.60,South,174,5.0,9.0,18,0.00,CLR,,0.00,WeatherDisplay:10.37,2013-09-20 09:40:00,
2013-09-20 02:50:00,63.9,19.5,29.60,South,176,3.0,9.0,18,0.00,CLR,,0.00,WeatherDisplay:10.37,2013-09-20 09:50:00,
2013-09-20 03:00:00,63.9,20.8,29.60,South,178,3.0,6.0,19,0.00,CLR,,0.00,WeatherDisplay:10.37,2013-09-20 10:00:00,
2013-09-20 03:10:00,63.6,20.5,29.60,South,178,2.0,5.0,19,0.00,CLR,,0.00,WeatherDisplay:10.37,2013-09-20 10:10:00,
2013-09-20 03:15:00,63.3,20.3,29.60,South,178,3.0,7.0,19,0.00,CLR,,0.00,WeatherDisplay:10.37,2013-09-20 10:15:00,
2013-09-20 03:20:00,62.9,20.0,29.60,South,178,3.0,7.0,19,0.00,CLR,,0.00,WeatherDisplay:10.37,2013-09-20 10:20:00,
2013-09-20 03:30:00,62.7,19.8,29.60,South,178,3.0,8.0,19,0.00,CLR,,0.00,WeatherDisplay:10.37,2013-09-20 10:30:00,
2013-09-20 03:40:00,63.1,20.1,29.60,South,176,5.0,9.0,19,0.00,CLR,,0.00,WeatherDisplay:10.37,2013-09-20 10:40:00,
2013-09-20 03:50:00,63.4,20.4,29.60,South,172,5.0,8.0,19,0.00,CLR,,0.00,WeatherDisplay:10.37,2013-09-20 10:50:00,
2013-09-20 04:00:00,64.0,20.9,29.59,South,177,3.0,9.0,19,0.00,CLR,,0.00,WeatherDisplay:10.37,2013-09-20 11:00:00,
2013-09-20 04:10:00,65.0,21.7,29.59,South,180,2.0,5.0,19,0.00,CLR,,0.00,WeatherDisplay:10.37,2013-09-20 11:10:00,
2013-09-20 04:20:00,65.6,20.9,29.59,South,181,2.0,6.0,18,0.00,CLR,,0.00,WeatherDisplay:10.37,2013-09-20 11:20:00,
2013-09-20 04:30:00,63.7,20.6,29.59,South,181,2.0,4.0,19,0.00,CLR,,0.00,WeatherDisplay:10.37,2013-09-20 11:30:00,
2013-09-20 04:40:00,62.8,21.1,29.60,South,181,1.0,3.0,20,0.00,CLR,,0.00,WeatherDisplay:10.37,2013-09-20 11:40:00,
2013-09-20 04:50:00,62.4,21.9,29.60,South,181,0.0,2.0,21,0.00,CLR,,0.00,WeatherDisplay:10.37,2013-09-20 11:50:00,
2013-09-20 05:00:00,62.1,21.7,29.60,South,181,0.0,3.0,21,0.00,CLR,,0.00,WeatherDisplay:10.37,2013-09-20 12:00:00,
2013-09-20 05:10:00,61.5,21.2,29.59,South,181,0.0,3.0,21,0.00,CLR,,0.00,WeatherDisplay:10.37,2013-09-20 12:10:00,
2013-09-20 05:20:00,61.0,20.8,29.60,South,181,0.0,1.0,21,0.00,CLR,,0.00,WeatherDisplay:10.37,2013-09-20 12:20:00,
2013-09-20 05:30:00,60.7,20.5,29.61,South,181,1.0,3.0,21,0.00,CLR,,0.00,WeatherDisplay:10.37,2013-09-20 12:30:00,
2013-09-20 05:40:00,60.5,21.4,29.61,South,181,0.0,4.0,22,0.00,CLR,,0.00,WeatherDisplay:10.37,2013-09-20 12:40:00,
2013-09-20 05:50:00,60.2,21.2,29.62,South,181,1.0,3.0,22,0.00,CLR,,0.00,WeatherDisplay:10.37,2013-09-20 12:50:00,
2013-09-20 06:00:00,59.9,20.9,29.62,South,181,0.0,0.0,22,0.00,CLR,,0.00,WeatherDisplay:10.37,2013-09-20 13:00:00,
2013-09-20 06:10:00,59.5,21.6,29.62,South,181,1.0,3.0,23,0.00,CLR,,0.00,WeatherDisplay:10.37,2013-09-20 13:10:00,
2013-09-20 06:20:00,59.2,20.4,29.62,South,181,1.0,3.0,22,0.00,CLR,,0.00,WeatherDisplay:10.37,2013-09-20 13:20:00,
2013-09-20 06:30:00,58.4,21.7,29.64,South,181,2.0,4.0,24,0.00,CLR,,0.00,WeatherDisplay:10.37,2013-09-20 13:30:00,
2013-09-20 06:40:00,58.9,22.1,29.64,South,181,3.0,5.0,24,0.00,CLR,,0.00,WeatherDisplay:10.37,2013-09-20 13:40:00,
2013-09-20 06:50:00,59.5,21.7,29.64,South,181,2.0,4.0,23,0.00,CLR,,0.00,WeatherDisplay:10.37,2013-09-20 13:50:00,
2013-09-20 07:00:00,59.6,21.7,29.64,South,181,1.0,3.0,23,0.00,CLR,,0.00,WeatherDisplay:10.37,2013-09-20 14:00:00,
2013-09-20 07:10:00,59.9,21.9,29.65,South,181,2.0,3.0,23,0.00,CLR,,0.00,WeatherDisplay:10.37,2013-09-20 14:10:00,
2013-09-20 07:15:00,60.1,22.1,29.65,South,181,1.0,4.0,23,0.00,CLR,,0.00,WeatherDisplay:10.37,2013-09-20 14:15:00,
2013-09-20 07:20:00,60.2,23.2,29.65,South,181,0.0,3.0,24,0.00,CLR,,0.00,WeatherDisplay:10.37,2013-09-20 14:20:00,
2013-09-20 07:30:00,61.0,22.9,29.68,South,181,0.0,0.0,23,0.00,CLR,,0.00,WeatherDisplay:10.37,2013-09-20 14:30:00,
2013-09-20 07:40:00,62.1,22.7,29.67,South,181,0.0,4.0,22,0.00,CLR,,0.00,WeatherDisplay:10.37,2013-09-20 14:40:00,
2013-09-20 07:50:00,63.5,24.0,29.67,South,181,0.0,3.0,22,0.00,CLR,,0.00,WeatherDisplay:10.37,2013-09-20 14:50:00,
2013-09-20 07:55:00,64.5,23.7,29.67,South,181,0.0,4.0,21,0.00,CLR,,0.00,WeatherDisplay:10.37,2013-09-20 14:55:00,
2013-09-20 08:00:00,65.4,24.4,29.67,South,181,0.0,3.0,21,0.00,CLR,,0.00,WeatherDisplay:10.37,2013-09-20 15:00:00,
2013-09-20 08:10:00,67.4,24.9,29.66,South,181,1.0,3.0,20,0.00,CLR,,0.00,WeatherDisplay:10.37,2013-09-20 15:10:00,
2013-09-20 08:15:00,68.6,24.6,29.66,South,181,2.0,5.0,19,0.00,CLR,,0.00,WeatherDisplay:10.37,2013-09-20 15:15:00,
2013-09-20 08:20:00,69.7,24.2,29.66,South,181,1.0,4.0,18,0.00,CLR,,0.00,WeatherDisplay:10.37,2013-09-20 15:20:00,
2013-09-20 08:25:00,70.5,24.9,29.66,South,181,1.0,3.0,18,0.00,CLR,,0.00,WeatherDisplay:10.37,2013-09-20 15:25:00,
2013-09-20 08:30:00,71.4,24.3,29.66,South,181,1.0,2.0,17,0.00,CLR,,0.00,WeatherDisplay:10.37,2013-09-20 15:30:00,
2013-09-20 08:40:00,73.1,24.2,29.66,South,181,0.0,2.0,16,0.00,CLR,,0.00,WeatherDisplay:10.37,2013-09-20 15:40:00,
2013-09-20 08:45:00,73.9,23.3,29.66,South,181,0.0,2.0,15,0.00,CLR,,0.00,WeatherDisplay:10.37,2013-09-20 15:45:00,
2013-09-20 08:50:00,74.7,22.3,29.65,South,181,1.0,2.0,14,0.00,CLR,,0.00,WeatherDisplay:10.37,2013-09-20 15:50:00,
2013-09-20 09:00:00,76.1,23.4,29.65,South,181,0.0,2.0,14,0.00,CLR,,0.00,WeatherDisplay:10.37,2013-09-20 16:00:00,
2013-09-20 09:10:00,77.4,22.7,29.65,South,181,0.0,2.0,13,0.00,CLR,,0.00,WeatherDisplay:10.37,2013-09-20 16:10:00,
2013-09-20 09:20:00,78.6,23.6,29.64,South,181,0.0,2.0,13,0.00,CLR,,0.00,WeatherDisplay:10.37,2013-09-20 16:20:00,
2013-09-20 09:30:00,79.2,22.2,29.65,South,181,0.0,3.0,12,0.00,CLR,,0.00,WeatherDisplay:10.37,2013-09-20 16:30:00,
2013-09-20 09:40:00,79.9,20.7,29.65,South,181,1.0,3.0,11,0.00,CLR,,0.00,WeatherDisplay:10.37,2013-09-20 16:40:00,
2013-09-20 09:50:00,81.3,21.8,29.65,South,181,0.0,0.0,11,0.00,CLR,,0.00,WeatherDisplay:10.37,2013-09-20 16:50:00,
2013-09-20 10:00:00,82.2,22.4,29.65,South,181,0.0,1.0,11,0.00,CLR,,0.00,WeatherDisplay:10.37,2013-09-20 17:00:00,
2013-09-20 10:10:00,84.1,21.6,29.64,South,181,0.0,0.0,10,0.00,CLR,,0.00,WeatherDisplay:10.37,2013-09-20 17:10:00,
2013-09-20 10:15:00,84.5,21.9,29.64,South,181,0.0,2.0,10,0.00,CLR,,0.00,WeatherDisplay:10.37,2013-09-20 17:15:00,
2013-09-20 10:20:00,85.2,22.4,29.64,South,181,0.0,2.0,10,0.00,CLR,,0.00,WeatherDisplay:10.37,2013-09-20 17:20:00,
2013-09-20 10:25:00,84.7,22.1,29.64,South,181,1.0,3.0,10,0.00,CLR,,0.00,WeatherDisplay:10.37,2013-09-20 17:25:00,
2013-09-20 10:30:00,84.1,21.6,29.64,South,181,0.0,2.0,10,0.00,CLR,,0.00,WeatherDisplay:10.37,2013-09-20 17:30:00,
2013-09-20 10:40:00,84.7,22.1,29.64,South,180,1.0,4.0,10,0.00,CLR,,0.00,WeatherDisplay:10.37,2013-09-20 17:40:00,
2013-09-20 10:50:00,85.3,22.6,29.64,South,179,0.0,3.0,10,0.00,CLR,,0.00,WeatherDisplay:10.37,2013-09-20 17:50:00,
2013-09-20 10:55:00,86.6,23.5,29.63,South,179,1.0,4.0,10,0.00,CLR,,0.00,WeatherDisplay:10.37,2013-09-20 17:55:00,
2013-09-20 11:00:00,87.2,24.0,29.63,South,179,1.0,3.0,10,0.00,CLR,,0.00,WeatherDisplay:10.37,2013-09-20 18:00:00,
2013-09-20 11:10:00,88.4,24.9,29.62,South,172,2.0,5.0,10,0.00,CLR,,0.00,WeatherDisplay:10.37,2013-09-20 18:10:00,
2013-09-20 11:20:00,88.6,25.0,29.61,SSE,147,1.0,6.0,10,0.00,CLR,,0.00,WeatherDisplay:10.37,2013-09-20 18:20:00,
2013-09-20 11:30:00,89.3,25.6,29.61,SE,133,0.0,5.0,10,0.00,CLR,,0.00,WeatherDisplay:10.37,2013-09-20 18:30:00,
2013-09-20 11:40:00,89.5,25.7,29.61,ESE,114,2.0,6.0,10,0.00,CLR,,0.00,WeatherDisplay:10.37,2013-09-20 18:40:00,
2013-09-20 11:45:00,89.6,23.3,29.60,ESE,104,6.0,12.0,9,0.00,CLR,,0.00,WeatherDisplay:10.37,2013-09-20 18:45:00,
2013-09-20 11:50:00,89.5,25.7,29.60,East,100,1.0,4.0,10,0.00,CLR,,0.00,WeatherDisplay:10.37,2013-09-20 18:50:00,
2013-09-20 12:00:00,91.0,24.3,29.59,East,100,1.0,5.0,9,0.00,CLR,,0.00,WeatherDisplay:10.37,2013-09-20 19:00:00,
2013-09-20 12:10:00,90.9,24.2,29.59,East,100,0.0,4.0,9,0.00,CLR,,0.00,WeatherDisplay:10.37,2013-09-20 19:10:00,
2013-09-20 12:15:00,91.4,24.7,29.59,East,101,1.0,5.0,9,0.00,CLR,,0.00,WeatherDisplay:10.37,2013-09-20 19:15:00,
2013-09-20 12:20:00,92.1,27.7,29.58,ESE,103,0.0,6.0,10,0.00,CLR,,0.00,WeatherDisplay:10.37,2013-09-20 19:20:00,
2013-09-20 12:30:00,93.2,28.5,29.58,SE,127,5.0,10.0,10,0.00,CLR,,0.00,WeatherDisplay:10.37,2013-09-20 19:30:00,
2013-09-20 12:40:00,92.9,28.3,29.58,South,187,7.0,13.0,10,0.00,CLR,,0.00,WeatherDisplay:10.37,2013-09-20 19:40:00,
2013-09-20 12:50:00,92.1,27.7,29.58,South,191,6.0,13.0,10,0.00,CLR,,0.00,WeatherDisplay:10.37,2013-09-20 19:50:00,
2013-09-20 13:00:00,93.4,28.7,29.58,SSE,158,6.0,12.0,10,0.00,CLR,,0.00,WeatherDisplay:10.37,2013-09-20 20:00:00,
2013-09-20 13:10:00,93.5,28.8,29.57,SE,140,7.0,12.0,10,0.00,CLR,,0.00,WeatherDisplay:10.37,2013-09-20 20:10:00,
2013-09-20 13:20:00,93.4,26.1,29.57,SSE,160,8.0,17.0,9,0.00,CLR,,0.00,WeatherDisplay:10.37,2013-09-20 20:20:00,
2013-09-20 13:30:00,92.5,25.4,29.57,SSE,155,8.0,17.0,9,0.00,CLR,,0.00,WeatherDisplay:10.37,2013-09-20 20:30:00,
2013-09-20 13:40:00,92.8,25.6,29.56,SSE,165,6.0,16.0,9,0.00,CLR,,0.00,WeatherDisplay:10.37,2013-09-20 20:40:00,
2013-09-20 13:50:00,93.6,20.3,29.56,SSE,150,8.0,20.0,7,0.00,CLR,,0.00,WeatherDisplay:10.37,2013-09-20 20:50:00,
2013-09-20 14:00:00,93.6,20.3,29.55,SSE,149,7.0,16.0,7,0.00,CLR,,0.00,WeatherDisplay:10.37,2013-09-20 21:00:00,
2013-09-20 14:10:00,93.4,26.1,29.55,South,173,6.0,17.0,9,0.00,CLR,,0.00,WeatherDisplay:10.37,2013-09-20 21:10:00,
2013-09-20 14:15:00,93.4,26.1,29.55,SSE,160,7.0,13.0,9,0.00,CLR,,0.00,WeatherDisplay:10.37,2013-09-20 21:15:00,
2013-09-20 14:20:00,93.5,26.2,29.54,SSE,159,9.0,16.0,9,0.00,CLR,,0.00,WeatherDisplay:10.37,2013-09-20 21:20:00,
2013-09-20 14:30:00,93.6,26.3,29.54,South,179,6.0,14.0,9,0.00,CLR,,0.00,WeatherDisplay:10.37,2013-09-20 21:30:00,
2013-09-20 14:40:00,94.0,26.6,29.54,SSE,153,7.0,15.0,9,0.00,CLR,,0.00,WeatherDisplay:10.37,2013-09-20 21:40:00,
2013-09-20 14:50:00,93.8,26.4,29.54,SSE,165,12.0,20.0,9,0.00,CLR,,0.00,WeatherDisplay:10.37,2013-09-20 21:50:00,
2013-09-20 15:00:00,93.4,28.7,29.53,SSE,153,2.0,18.0,10,0.00,CLR,,0.00,WeatherDisplay:10.37,2013-09-20 22:00:00,
2013-09-20 15:10:00,94.2,26.7,29.52,SSE,151,7.0,16.0,9,0.00,CLR,,0.00,WeatherDisplay:10.37,2013-09-20 22:10:00,
2013-09-20 15:15:00,94.3,29.4,29.52,SSE,155,9.0,23.0,10,0.00,CLR,,0.00,WeatherDisplay:10.37,2013-09-20 22:15:00,
2013-09-20 15:20:00,94.0,29.1,29.52,SSE,163,9.0,25.0,10,0.00,CLR,,0.00,WeatherDisplay:10.37,2013-09-20 22:20:00,
2013-09-20 15:25:00,93.8,29.0,29.51,SSE,163,6.0,20.0,10,0.00,CLR,,0.00,WeatherDisplay:10.37,2013-09-20 22:25:00,
2013-09-20 15:30:00,93.8,29.0,29.51,SSE,162,10.0,20.0,10,0.00,CLR,,0.00,WeatherDisplay:10.37,2013-09-20 22:30:00,
2013-09-20 15:40:00,93.4,26.1,29.51,SSE,158,8.0,16.0,9,0.00,CLR,,0.00,WeatherDisplay:10.37,2013-09-20 22:40:00,
2013-09-20 15:50:00,92.9,25.7,29.50,South,176,9.0,21.0,9,0.00,CLR,,0.00,WeatherDisplay:10.37,2013-09-20 22:50:00,
2013-09-20 16:00:00,92.9,22.9,29.51,South,172,10.0,22.0,8,0.00,CLR,,0.00,WeatherDisplay:10.37,2013-09-20 23:00:00,
2013-09-20 16:10:00,92.9,25.7,29.50,South,169,12.0,23.0,9,0.00,CLR,,0.00,WeatherDisplay:10.37,2013-09-20 23:10:00,
2013-09-20 16:15:00,92.7,25.6,29.50,South,177,13.0,24.0,9,0.00,CLR,,0.00,WeatherDisplay:10.37,2013-09-20 23:15:00,
2013-09-20 16:20:00,92.7,25.6,29.50,South,183,13.0,23.0,9,0.00,CLR,,0.00,WeatherDisplay:10.37,2013-09-20 23:20:00,
2013-09-20 16:25:00,92.7,25.6,29.50,South,183,10.0,20.0,9,0.00,CLR,,0.00,WeatherDisplay:10.37,2013-09-20 23:25:00,
2013-09-20 16:30:00,92.5,22.6,29.51,South,173,10.0,23.0,8,0.00,CLR,,0.00,WeatherDisplay:10.37,2013-09-20 23:30:00,
2013-09-20 16:40:00,92.3,22.5,29.51,South,182,12.0,23.0,8,0.00,CLR,,0.00,WeatherDisplay:10.37,2013-09-20 23:40:00,
2013-09-20 16:50:00,92.1,25.1,29.51,South,181,12.0,25.0,9,0.00,CLR,,0.00,WeatherDisplay:10.37,2013-09-20 23:50:00,
2013-09-20 16:55:00,91.8,24.9,29.51,South,189,9.0,21.0,9,0.00,CLR,,0.00,WeatherDisplay:10.37,2013-09-20 23:55:00,
2013-09-20 17:00:00,91.8,24.9,29.50,South,186,8.0,18.0,9,0.00,CLR,,0.00,WeatherDisplay:10.37,2013-09-21 00:00:00,
2013-09-20 17:10:00,91.6,22.0,29.51,South,179,9.0,22.0,8,0.00,CLR,,0.00,WeatherDisplay:10.37,2013-09-21 00:10:00,
2013-09-20 17:15:00,91.4,21.8,29.50,South,174,12.0,20.0,8,0.00,CLR,,0.00,WeatherDisplay:10.37,2013-09-21 00:15:00,
2013-09-20 17:20:00,91.2,24.5,29.50,South,171,12.0,23.0,9,0.00,CLR,,0.00,WeatherDisplay:10.37,2013-09-21 00:20:00,
2013-09-20 17:30:00,90.7,29.0,29.51,SSE,164,8.0,20.0,11,0.00,CLR,,0.00,WeatherDisplay:10.37,2013-09-21 00:30:00,
2013-09-20 17:40:00,90.3,30.8,29.52,South,183,9.0,20.0,12,0.00,CLR,,0.00,WeatherDisplay:10.37,2013-09-21 00:40:00,
2013-09-20 17:45:00,90.0,32.6,29.52,South,182,15.0,24.0,13,0.00,CLR,,0.00,WeatherDisplay:10.37,2013-09-21 00:45:00,
2013-09-20 17:50:00,89.6,32.2,29.52,SSW,199,13.0,23.0,13,0.00,CLR,,0.00,WeatherDisplay:10.37,2013-09-21 00:50:00,
2013-09-20 18:00:00,89.2,33.7,29.52,SSW,199,10.0,20.0,14,0.00,CLR,,0.00,WeatherDisplay:10.37,2013-09-21 01:00:00,
2013-09-20 18:10:00,88.4,33.1,29.53,SSW,204,14.0,24.0,14,0.00,CLR,,0.00,WeatherDisplay:10.37,2013-09-21 01:10:00,
2013-09-20 18:15:00,88.2,33.0,29.53,South,190,9.0,18.0,14,0.00,CLR,,0.00,WeatherDisplay:10.37,2013-09-21 01:15:00,
2013-09-20 18:20:00,88.0,32.8,29.53,South,188,13.0,21.0,14,0.00,CLR,,0.00,WeatherDisplay:10.37,2013-09-21 01:20:00,
2013-09-20 18:30:00,87.4,32.3,29.53,SSW,201,9.0,17.0,14,0.00,CLR,,0.00,WeatherDisplay:10.37,2013-09-21 01:30:00,
2013-09-20 18:40:00,86.5,31.6,29.53,SW,216,12.0,17.0,14,0.00,CLR,,0.00,WeatherDisplay:10.37,2013-09-21 01:40:00,
2013-09-20 18:50:00,85.5,32.6,29.54,SW,236,9.0,12.0,15,0.00,CLR,,0.00,WeatherDisplay:10.37,2013-09-21 01:50:00,
2013-09-20 19:00:00,84.1,33.0,29.55,SW,224,5.0,8.0,16,0.00,CLR,,0.00,WeatherDisplay:10.37,2013-09-21 02:00:00,
2013-09-20 19:10:00,83.7,32.7,29.55,SW,233,6.0,9.0,16,0.00,CLR,,0.00,WeatherDisplay:10.37,2013-09-21 02:10:00,
2013-09-20 19:20:00,83.0,33.7,29.55,WSW,256,7.0,12.0,17,0.00,CLR,,0.00,WeatherDisplay:10.37,2013-09-21 02:20:00,
2013-09-20 19:30:00,82.6,33.4,29.53,WSW,252,3.0,12.0,17,0.00,CLR,,0.00,WeatherDisplay:10.37,2013-09-21 02:30:00,
2013-09-20 19:40:00,82.0,32.9,29.55,WSW,252,0.0,3.0,17,0.00,CLR,,0.00,WeatherDisplay:10.37,2013-09-21 02:40:00,
2013-09-20 19:50:00,81.1,33.6,29.55,WSW,252,0.0,2.0,18,0.00,CLR,,0.00,WeatherDisplay:10.37,2013-09-21 02:50:00,
2013-09-20 20:00:00,79.9,33.9,29.56,WSW,252,1.0,2.0,19,0.00,CLR,,0.00,WeatherDisplay:10.37,2013-09-21 03:00:00,
2013-09-20 20:10:00,78.7,34.3,29.56,WSW,245,2.0,4.0,20,0.00,CLR,,0.00,WeatherDisplay:10.37,2013-09-21 03:10:00,
2013-09-20 20:15:00,78.5,34.1,29.56,SW,222,3.0,7.0,20,0.00,CLR,,0.00,WeatherDisplay:10.37,2013-09-21 03:15:00,
2013-09-20 20:20:00,78.5,34.1,29.56,South,176,3.0,12.0,20,0.00,CLR,,0.00,WeatherDisplay:10.37,2013-09-21 03:20:00,
2013-09-20 20:30:00,79.0,34.5,29.54,South,179,5.0,13.0,20,0.00,CLR,,0.00,WeatherDisplay:10.37,2013-09-21 03:30:00,
2013-09-20 20:40:00,78.8,34.3,29.55,South,179,5.0,12.0,20,0.00,CLR,,0.00,WeatherDisplay:10.37,2013-09-21 03:40:00,
2013-09-20 20:50:00,78.1,33.7,29.55,South,178,3.0,12.0,20,0.00,CLR,,0.00,WeatherDisplay:10.37,2013-09-21 03:50:00,
2013-09-20 20:55:00,78.1,35.0,29.56,South,189,7.0,13.0,21,0.00,CLR,,0.00,WeatherDisplay:10.37,2013-09-21 03:55:00,
2013-09-20 21:00:00,78.1,35.0,29.55,SSW,193,7.0,14.0,21,0.00,CLR,,0.00,WeatherDisplay:10.37,2013-09-21 04:00:00,
2013-09-20 21:05:00,78.3,35.1,29.55,SSW,196,8.0,14.0,21,0.00,CLR,,0.00,WeatherDisplay:10.37,2013-09-21 04:05:00,
2013-09-20 21:10:00,78.1,35.0,29.56,SSW,194,6.0,12.0,21,0.00,CLR,,0.00,WeatherDisplay:10.37,2013-09-21 04:10:00,
2013-09-20 21:15:00,77.6,34.5,29.55,SSW,194,6.0,12.0,21,0.00,CLR,,0.00,WeatherDisplay:10.37,2013-09-21 04:15:00,
2013-09-20 21:20:00,77.4,34.4,29.55,SSW,199,8.0,13.0,21,0.00,CLR,,0.00,WeatherDisplay:10.37,2013-09-21 04:20:00,
2013-09-20 21:30:00,77.6,33.3,29.54,SSW,201,10.0,15.0,20,0.00,CLR,,0.00,WeatherDisplay:10.37,2013-09-21 04:30:00,
2013-09-20 21:40:00,77.2,34.2,29.54,SSW,194,5.0,15.0,21,0.00,CLR,,0.00,WeatherDisplay:10.37,2013-09-21 04:40:00,
2013-09-20 21:45:00,76.8,33.9,29.54,SSW,192,7.0,14.0,21,0.00,CLR,,0.00,WeatherDisplay:10.37,2013-09-21 04:45:00,
2013-09-20 21:50:00,76.2,34.6,29.55,SSW,193,5.0,10.0,22,0.00,CLR,,0.00,WeatherDisplay:10.37,2013-09-21 04:50:00,
2013-09-20 22:00:00,75.3,33.8,29.55,South,188,2.0,6.0,22,0.00,CLR,,0.00,WeatherDisplay:10.37,2013-09-21 05:00:00,
2013-09-20 22:05:00,74.7,34.4,29.55,South,188,2.0,6.0,23,0.00,CLR,,0.00,WeatherDisplay:10.37,2013-09-21 05:05:00,
2013-09-20 22:10:00,74.2,34.0,29.55,South,187,2.0,5.0,23,0.00,CLR,,0.00,WeatherDisplay:10.37,2013-09-21 05:10:00,
2013-09-20 22:15:00,73.9,34.8,29.55,South,185,3.0,7.0,24,0.00,CLR,,0.00,WeatherDisplay:10.37,2013-09-21 05:15:00,
2013-09-20 22:20:00,73.7,34.6,29.55,South,183,2.0,5.0,24,0.00,CLR,,0.00,WeatherDisplay:10.37,2013-09-21 05:20:00,
2013-09-20 22:30:00,73.3,35.3,29.55,SSW,192,3.0,12.0,25,0.00,CLR,,0.00,WeatherDisplay:10.37,2013-09-21 05:30:00,
2013-09-20 22:40:00,74.6,35.4,29.54,SSW,201,2.0,10.0,24,0.00,CLR,,0.00,WeatherDisplay:10.37,2013-09-21 05:40:00,
2013-09-20 22:50:00,74.6,35.4,29.54,SSW,200,2.0,7.0,24,0.00,CLR,,0.00,WeatherDisplay:10.37,2013-09-21 05:50:00,
2013-09-20 23:00:00,73.9,34.8,29.55,South,169,3.0,7.0,24,0.00,CLR,,0.00,WeatherDisplay:10.37,2013-09-21 06:00:00,
2013-09-20 23:10:00,73.5,35.5,29.55,South,175,3.0,7.0,25,0.00,CLR,,0.00,WeatherDisplay:10.37,2013-09-21 06:10:00,
2013-09-20 23:20:00,72.7,34.8,29.55,SSE,168,5.0,9.0,25,0.00,CLR,,0.00,WeatherDisplay:10.37,2013-09-21 06:20:00,
2013-09-20 23:25:00,72.7,34.8,29.55,SSE,167,3.0,8.0,25,0.00,CLR,,0.00,WeatherDisplay:10.37,2013-09-21 06:25:00,
2013-09-20 23:30:00,72.7,35.8,29.54,South,171,5.0,9.0,26,0.00,CLR,,0.00,WeatherDisplay:10.37,2013-09-21 06:30:00,
2013-09-20 23:40:00,73.5,35.5,29.54,SSW,193,9.0,16.0,25,0.00,CLR,,0.00,WeatherDisplay:10.37,2013-09-21 06:40:00,
2013-09-20 23:50:00,73.9,35.8,29.54,SSW,196,7.0,13.0,25,0.00,CLR,,0.00,WeatherDisplay:10.37,2013-09-21 06:50:00,